Location: Luz Observatory
(34.5000°N, 117.2833°W)
Time: 23:48:10
(UTC-07:00)

Okean 3 Rocket - Visible Passes

Search period start: 23 April 2018 00:00
Search period end: 03 May 2018 00:00
Orbit: 616 x 644 km, 82.5° (Epoch: 23 April)

Date Brightness Start Highest point End Pass type
(mag) Time Alt. Az. Time Alt. Az. Time Alt. Az.
23 Apr 7.2 05:34:33 10° ESE 05:35:55 11° E 05:37:17 10° ENE visible
27 Apr 6.6 05:18:08 10° SE 05:21:06 17° E 05:24:04 10° NE visible
30 Apr 6.8 04:43:52 10° ESE 04:45:43 12° E 04:47:35 10° ENE visible
01 May 6.0 05:02:33 10° SE 05:06:18 26° E 05:10:04 10° NNE visible
02 May 4.4 05:22:34 10° S 05:26:59 56° E 05:31:27 10° NNE visible
